This is the latest recevied weather packets stored in our database for station/object JH0KSP-13. If no packets are shown the sender has not sent any weather packets the latest 10 day(s).
| Time | Temp. | Humidity | Pressure | Rain* | Wind** | Luminosity | Snow |
|---|---|---|---|---|---|---|---|
| 1778076609 | 13.89° C | 97% | 1018.7 hPa | 0 mm | - | - | - |
| 1778075410 | 15° C | 96% | 1018.6 hPa | 0 mm | - | - | - |
| 1778074016 | 15° C | 96% | 1018.5 hPa | 0 mm | - | - | - |
| 1778069217 | 16.11° C | 93% | 1018.8 hPa | 0 mm | - | - | - |
| 1778066816 | 16.11° C | 91% | 1018.8 hPa | 0 mm | - | - | - |
| 1778062016 | 17.22° C | 86% | 1018.5 hPa | 0 mm | - | - | - |
| 1778060817 | 17.22° C | 85% | 1018.4 hPa | 0 mm | - | - | - |
| 1778059616 | 17.22° C | 84% | 1018.4 hPa | 0 mm | - | - | - |
| 1778056017 | 17.78° C | 71% | 1018.4 hPa | 0 mm | - | - | - |
| 1778054816 | 18.89° C | 65% | 1018.5 hPa | 0 mm | - | - | - |
| 1778053617 | 17.78° C | 67% | 1018.7 hPa | 0 mm | - | - | - |
| 1778052415 | 17.78° C | 70% | 1019.2 hPa | 0 mm | - | - | - |
| 1778051216 | 17.78° C | 68% | 1019.2 hPa | 0 mm | - | - | - |
| 1778048816 | 17.78° C | 69% | 1019.2 hPa | 0 mm | - | - | - |
| 1778047616 | 17.78° C | 71% | 1019.4 hPa | 0 mm | - | - | - |
| 1778045215 | 17.22° C | 73% | 1019.4 hPa | 0 mm | - | - | - |
| 1778044017 | 17.78° C | 72% | 1019.6 hPa | 0 mm | - | - | - |
| 1778042816 | 17.22° C | 71% | 1019.8 hPa | 0 mm | - | - | - |
| 1778041616 | 17.22° C | 69% | 1020.1 hPa | 0 mm | - | - | - |
| 1778040416 | 17.22° C | 67% | 1020.4 hPa | 0 mm | - | - | - |
| 1778039216 | 17.22° C | 67% | 1021 hPa | 0 mm | - | - | - |
| 1778038016 | 17.22° C | 67% | 1021.1 hPa | 0 mm | - | - | - |
| 1778036815 | 17.22° C | 69% | 1021.2 hPa | 0 mm | - | - | - |
| 1778035616 | 17.22° C | 70% | 1021.5 hPa | 0 mm | - | - | - |
| 1778035208 | 17.22° C | 73% | 1021.5 hPa | 0 mm | - | - | - |
* Rain latest hour (hover to see other rain measurements)
** Current wind speed in m/s (hover to see current wind gust speed)